Aérodrome :
LOGIN :

S'inscrire | Disclaimer

   EN    FR    IT 

 










Légende :    VFR   VFR Marginal   IFR   IFR Intensif   IFR Très Intensif
Visi : 
Plafond : 
>= 8 km
>= 3000ft
5 à 8 km
1000 à 3000 ft
1500m à 5 km
500 à 1000 ft
800 à 1500m
200 à 500 ft
< 800m
< 200 ft
Symboles :   Orages  Brouillard  Fortes neiges  Fortes précipitations  Vent > 20 kt
SIGMETs :   Divers  Orages  Givrage  Turbulence  Onde Orograph.  Cendres Volcan.







- Altitude de l'aérodrome : 82 ft
- Code IATA : AAR


EKAH - Aarhus Tirstrup

DERNIER METAR :
  • 201750Z AUTO 14003KT 9999NDV NCD 16/M02 Q1031

METARs EXPIRÉS :
  • 201720Z 15003KT CAVOK 17/M03 Q1031
  • 201650Z 16003KT CAVOK 17/M03 Q1031
  • 201620Z VRB03KT CAVOK 18/M04 Q1032
  • 201550Z 21004KT 160V260 CAVOK 18/M03 Q1032
  • 201520Z 19004KT 140V240 CAVOK 18/M03 Q1032

TAF TAF EKAH
Valide du 20 à 18h jusqu'au 21 à 18h UTC


201656Z 2018/2118 VRB02KT CAVOK
Pas de NOTAMs connus pour ce terrain.



MET'MAP, la Météo Aéronautique d'un coup d'oeil ! - Copyright ORBIFLY Décembre 2007 - Disclaimer

ORBIFLY MET'MAP TEAM :

Programmation & Développement : Alexandra Zaïnal
Conception & Développement : Baudouin d'Aumeries
Co-Programmation & Développement : Marc-Olivier Méhu
Soutien technique & logistique : Manuel Goepfert

Contact : metmap@orbifly.com




SOURCES & CREDITS :

   NOAA